Location: Bailleul
(50.3375°N, 2.8513°E)
Time: 08:26:21
(UTC+00:00)

Cosmos 389 Rocket - Pass Details

Date: 16 June 2021
Orbit: 440 x 471 km, 81.1° (Epoch: 26 July)

Event Time Altitude Azimuth Distance (km) Brightness Sun altitude
Rises 21:55:50 0° 355° (N) 2,446 7.6 -12.1°
Reaches altitude 10° 21:58:03 10° 6° (N) 1,572 6.1 -12.3°
Maximum altitude 22:01:10 32° 71° (ENE) 796 3.6 -12.5°
Enters shadow 22:03:06 18° 124° (SE) 1,161 4.0 -12.6°
